Time,TemperatureF,DewpointF,PressureIn,WindDirection,WindDirectionDegrees,WindSpeedMPH,WindSpeedGustMPH,Humidity,HourlyPrecipIn,Conditions,Clouds,dailyrainin,SoftwareType,DateUTC
2013-02-13 00:00:00,44.8,43.2,29.86,ENE,68,2.0,5.0,94,0.00,,OVC080,0.17,VWS V14.01,2013-02-13 05:00:00,
2013-02-13 00:05:00,44.7,43.1,29.85,East,85,1.0,6.0,94,0.00,,OVC080,0.00,VWS V14.01,2013-02-13 05:05:00,
2013-02-13 00:10:00,44.7,43.1,29.85,East,84,3.0,8.0,94,0.00,,OVC080,0.00,VWS V14.01,2013-02-13 05:10:00,
2013-02-13 00:15:00,44.7,43.4,29.85,ENE,63,1.0,7.0,95,0.00,,OVC080,0.00,VWS V14.01,2013-02-13 05:15:00,
2013-02-13 00:20:00,44.6,43.3,29.86,East,96,1.0,5.0,95,0.00,,OVC080,0.00,VWS V14.01,2013-02-13 05:20:00,
2013-02-13 00:25:00,44.6,43.3,29.86,NNE,18,5.0,5.0,95,0.00,,OVC080,0.00,VWS V14.01,2013-02-13 05:25:00,
2013-02-13 00:30:00,44.5,43.2,29.86,East,83,6.0,7.0,95,0.00,,OVC080,0.00,VWS V14.01,2013-02-13 05:30:00,
2013-02-13 00:35:00,44.4,43.1,29.85,East,94,3.0,5.0,95,0.00,,OVC080,0.00,VWS V14.01,2013-02-13 05:35:00,
2013-02-13 00:40:00,44.3,43.0,29.85,West,277,1.0,9.0,95,0.00,,OVC080,0.00,VWS V14.01,2013-02-13 05:40:00,
2013-02-13 00:45:00,44.2,42.9,29.85,NE,49,2.0,5.0,95,0.00,,OVC080,0.00,VWS V14.01,2013-02-13 05:45:00,
2013-02-13 00:50:00,44.1,42.8,29.84,ENE,64,0.0,7.0,95,0.00,,OVC080,0.00,VWS V14.01,2013-02-13 05:50:00,
2013-02-13 00:55:00,44.1,42.8,29.83,East,87,2.0,7.0,95,0.00,,OVC080,0.00,VWS V14.01,2013-02-13 05:55:00,
2013-02-13 01:00:00,44.0,42.7,29.84,ESE,120,3.0,6.0,95,0.00,,OVC080,0.00,VWS V14.01,2013-02-13 06:00:00,
2013-02-13 01:05:00,43.9,42.6,29.84,ESE,109,2.0,5.0,95,0.00,,OVC080,0.00,VWS V14.01,2013-02-13 06:05:00,
2013-02-13 01:10:00,43.9,42.6,29.85,East,91,2.0,11.0,95,0.00,,OVC080,0.00,VWS V14.01,2013-02-13 06:10:00,
2013-02-13 01:15:00,43.8,42.5,29.84,SE,126,5.0,7.0,95,0.00,,OVC080,0.00,VWS V14.01,2013-02-13 06:15:00,
2013-02-13 01:20:00,43.7,42.4,29.85,NE,37,0.0,7.0,95,0.00,,OVC080,0.00,VWS V14.01,2013-02-13 06:20:00,
2013-02-13 01:25:00,43.8,42.5,29.85,East,96,0.0,5.0,95,0.00,,OVC080,0.00,VWS V14.01,2013-02-13 06:25:00,
2013-02-13 01:30:00,43.7,42.4,29.85,ESE,103,0.0,7.0,95,0.00,,OVC080,0.00,VWS V14.01,2013-02-13 06:30:00,
2013-02-13 01:35:00,43.7,42.4,29.85,NE,53,4.0,7.0,95,0.00,,OVC080,0.00,VWS V14.01,2013-02-13 06:35:00,
2013-02-13 01:40:00,43.6,42.3,29.85,SE,135,2.0,9.0,95,0.00,,OVC080,0.00,VWS V14.01,2013-02-13 06:40:00,
2013-02-13 01:45:00,43.6,42.3,29.84,East,91,3.0,11.0,95,0.00,,OVC080,0.00,VWS V14.01,2013-02-13 06:45:00,
2013-02-13 01:50:00,43.6,42.3,29.83,ENE,57,1.0,10.0,95,0.00,,OVC080,0.00,VWS V14.01,2013-02-13 06:50:00,
2013-02-13 01:55:00,43.5,42.2,29.84,East,83,3.0,4.0,95,0.00,,OVC080,0.00,VWS V14.01,2013-02-13 06:55:00,
2013-02-13 02:00:00,43.5,42.2,29.85,ENE,66,1.0,7.0,95,0.00,,OVC080,0.00,VWS V14.01,2013-02-13 07:00:00,
2013-02-13 02:05:00,43.5,42.2,29.84,East,93,2.0,4.0,95,0.00,,OVC080,0.00,VWS V14.01,2013-02-13 07:05:00,
2013-02-13 02:10:00,43.5,42.2,29.83,SE,136,3.0,8.0,95,0.00,,OVC080,0.00,VWS V14.01,2013-02-13 07:10:00,
2013-02-13 02:15:00,43.5,42.2,29.83,ESE,104,3.0,5.0,95,0.00,,OVC080,0.00,VWS V14.01,2013-02-13 07:15:00,
2013-02-13 02:20:00,43.4,42.1,29.83,NNE,13,1.0,5.0,95,0.00,,OVC080,0.00,VWS V14.01,2013-02-13 07:20:00,
2013-02-13 02:25:00,43.4,42.1,29.83,East,97,1.0,7.0,95,0.00,,OVC080,0.00,VWS V14.01,2013-02-13 07:25:00,
2013-02-13 02:30:00,43.5,42.2,29.83,ENE,63,0.0,7.0,95,0.00,,OVC080,0.00,VWS V14.01,2013-02-13 07:30:00,
2013-02-13 02:35:00,43.4,42.1,29.82,SSE,161,0.0,6.0,95,0.00,,OVC080,0.00,VWS V14.01,2013-02-13 07:35:00,
2013-02-13 02:40:00,43.3,42.0,29.82,East,82,0.0,5.0,95,0.00,,OVC080,0.00,VWS V14.01,2013-02-13 07:40:00,
2013-02-13 02:45:00,43.3,42.0,29.82,ESE,110,1.0,8.0,95,0.00,,OVC080,0.00,VWS V14.01,2013-02-13 07:45:00,
2013-02-13 02:50:00,43.2,41.9,29.82,East,91,2.0,4.0,95,0.00,,OVC080,0.00,VWS V14.01,2013-02-13 07:50:00,
2013-02-13 02:55:00,43.3,42.0,29.81,SE,134,2.0,2.0,95,0.00,,OVC080,0.00,VWS V14.01,2013-02-13 07:55:00,
2013-02-13 03:00:00,43.3,42.2,29.81,NE,51,1.0,3.0,96,0.00,,OVC080,0.00,VWS V14.01,2013-02-13 08:00:00,
2013-02-13 03:05:00,43.2,42.1,29.81,ESE,117,0.0,5.0,96,0.00,,OVC080,0.00,VWS V14.01,2013-02-13 08:05:00,
2013-02-13 03:10:00,43.2,42.1,29.81,NNE,26,4.0,8.0,96,0.02,,OVC080,0.02,VWS V14.01,2013-02-13 08:10:00,
2013-02-13 03:15:00,43.2,42.1,29.81,SSE,155,1.0,8.0,96,0.03,,OVC080,0.03,VWS V14.01,2013-02-13 08:15:00,
2013-02-13 03:20:00,43.2,42.1,29.82,ENE,77,2.0,6.0,96,0.04,,OVC080,0.04,VWS V14.01,2013-02-13 08:20:00,
2013-02-13 03:25:00,43.2,42.1,29.81,NE,53,0.0,5.0,96,0.04,,OVC080,0.04,VWS V14.01,2013-02-13 08:25:00,
2013-02-13 03:30:00,43.2,42.1,29.81,West,269,0.0,6.0,96,0.04,,OVC080,0.04,VWS V14.01,2013-02-13 08:30:00,
2013-02-13 03:35:00,43.3,42.2,29.80,ENE,66,2.0,3.0,96,0.04,,OVC080,0.04,VWS V14.01,2013-02-13 08:35:00,
2013-02-13 03:40:00,43.2,42.1,29.80,NW,318,0.0,6.0,96,0.04,,OVC080,0.04,VWS V14.01,2013-02-13 08:40:00,
2013-02-13 03:45:00,43.2,42.1,29.81,ENE,65,2.0,3.0,96,0.05,,OVC080,0.05,VWS V14.01,2013-02-13 08:45:00,
2013-02-13 03:50:00,43.2,42.1,29.80,East,97,0.0,6.0,96,0.05,,OVC080,0.05,VWS V14.01,2013-02-13 08:50:00,
2013-02-13 03:55:00,43.2,42.1,29.80,SSW,210,1.0,6.0,96,0.05,,OVC080,0.05,VWS V14.01,2013-02-13 08:55:00,
2013-02-13 04:00:00,43.2,42.1,29.80,East,101,2.0,4.0,96,0.05,,OVC080,0.05,VWS V14.01,2013-02-13 09:00:00,
2013-02-13 04:05:00,43.3,42.5,29.80,WNW,295,0.0,4.0,97,0.05,,OVC080,0.05,VWS V14.01,2013-02-13 09:05:00,
2013-02-13 04:10:00,43.3,42.5,29.80,East,85,0.0,4.0,97,0.05,,OVC080,0.05,VWS V14.01,2013-02-13 09:10:00,
2013-02-13 04:15:00,43.3,42.5,29.78,ESE,105,2.0,4.0,97,0.02,,OVC080,0.05,VWS V14.01,2013-02-13 09:15:00,
2013-02-13 04:20:00,43.3,42.5,29.78,ENE,63,2.0,4.0,97,0.01,,OVC080,0.05,VWS V14.01,2013-02-13 09:20:00,
2013-02-13 04:25:00,43.3,42.5,29.78,East,83,1.0,5.0,97,0.01,,OVC080,0.05,VWS V14.01,2013-02-13 09:25:00,
2013-02-13 04:30:00,43.4,42.6,29.78,East,94,1.0,6.0,97,0.01,,OVC080,0.05,VWS V14.01,2013-02-13 09:30:00,
2013-02-13 04:35:00,43.4,42.6,29.78,East,83,1.0,5.0,97,0.01,,OVC080,0.05,VWS V14.01,2013-02-13 09:35:00,
2013-02-13 04:40:00,43.4,42.6,29.77,East,87,4.0,5.0,97,0.01,,OVC080,0.05,VWS V14.01,2013-02-13 09:40:00,
2013-02-13 04:45:00,43.4,42.6,29.77,NE,47,2.0,5.0,97,0.01,,OVC080,0.05,VWS V14.01,2013-02-13 09:45:00,
2013-02-13 04:50:00,43.4,42.6,29.77,SE,142,0.0,3.0,97,0.00,,OVC080,0.05,VWS V14.01,2013-02-13 09:50:00,
2013-02-13 04:55:00,43.4,42.6,29.78,ENE,74,0.0,3.0,97,0.00,,OVC080,0.05,VWS V14.01,2013-02-13 09:55:00,
2013-02-13 05:00:00,43.5,42.7,29.78,WNW,285,0.0,3.0,97,0.00,,OVC080,0.05,VWS V14.01,2013-02-13 10:00:00,
2013-02-13 05:05:00,43.5,42.7,29.77,East,80,2.0,3.0,97,0.00,,OVC080,0.05,VWS V14.01,2013-02-13 10:05:00,
2013-02-13 05:10:00,43.4,42.6,29.77,ENE,78,2.0,8.0,97,0.00,,OVC080,0.05,VWS V14.01,2013-02-13 10:10:00,
2013-02-13 05:15:00,43.5,42.7,29.77,ESE,118,0.0,2.0,97,0.00,,OVC080,0.05,VWS V14.01,2013-02-13 10:15:00,
2013-02-13 05:20:00,43.5,42.7,29.77,NE,41,0.0,1.0,97,0.00,,OVC080,0.05,VWS V14.01,2013-02-13 10:20:00,
2013-02-13 05:25:00,43.5,42.7,29.77,East,87,0.0,5.0,97,0.00,,OVC080,0.05,VWS V14.01,2013-02-13 10:25:00,
2013-02-13 05:30:00,43.5,42.7,29.77,ENE,77,2.0,6.0,97,0.00,,OVC080,0.05,VWS V14.01,2013-02-13 10:30:00,
2013-02-13 05:35:00,43.4,42.6,29.77,SW,231,1.0,5.0,97,0.00,,OVC080,0.05,VWS V14.01,2013-02-13 10:35:00,
2013-02-13 05:40:00,43.5,42.7,29.76,ESE,120,1.0,5.0,97,0.00,,OVC080,0.05,VWS V14.01,2013-02-13 10:40:00,
2013-02-13 05:45:00,43.4,42.6,29.76,ENE,74,7.0,7.0,97,0.00,,OVC080,0.05,VWS V14.01,2013-02-13 10:45:00,
2013-02-13 05:50:00,43.4,42.6,29.77,WSW,252,1.0,6.0,97,0.00,,OVC080,0.05,VWS V14.01,2013-02-13 10:50:00,
2013-02-13 05:55:00,43.5,42.7,29.76,ENE,72,3.0,4.0,97,0.00,,OVC080,0.05,VWS V14.01,2013-02-13 10:55:00,
2013-02-13 06:00:00,43.5,42.7,29.77,SW,230,3.0,3.0,97,0.00,,OVC080,0.05,VWS V14.01,2013-02-13 11:00:00,
2013-02-13 06:05:00,43.5,42.7,29.77,ENE,66,5.0,5.0,97,0.00,,OVC080,0.05,VWS V14.01,2013-02-13 11:05:00,
2013-02-13 06:10:00,43.6,42.8,29.76,ESE,114,0.0,3.0,97,0.00,,OVC080,0.05,VWS V14.01,2013-02-13 11:10:00,
2013-02-13 06:15:00,43.6,42.8,29.77,SW,233,0.0,3.0,97,0.00,,OVC080,0.05,VWS V14.01,2013-02-13 11:15:00,
2013-02-13 06:20:00,43.6,42.8,29.76,NE,34,3.0,5.0,97,0.00,,OVC080,0.05,VWS V14.01,2013-02-13 11:20:00,
2013-02-13 06:25:00,43.6,42.8,29.77,NW,316,0.0,5.0,97,0.00,,OVC080,0.05,VWS V14.01,2013-02-13 11:25:00,
2013-02-13 06:30:00,43.6,42.8,29.76,SSW,197,0.0,1.0,97,0.00,,OVC080,0.05,VWS V14.01,2013-02-13 11:30:00,
2013-02-13 06:35:00,43.7,42.9,29.77,East,83,0.0,1.0,97,0.00,,OVC080,0.05,VWS V14.01,2013-02-13 11:35:00,
2013-02-13 06:40:00,43.7,42.9,29.78,WSW,254,0.0,4.0,97,0.00,,OVC080,0.05,VWS V14.01,2013-02-13 11:40:00,
2013-02-13 06:45:00,43.7,42.9,29.79,East,89,0.0,2.0,97,0.00,,OVC080,0.05,VWS V14.01,2013-02-13 11:45:00,
2013-02-13 06:50:00,43.7,42.9,29.79,East,91,0.0,1.0,97,0.00,,OVC080,0.05,VWS V14.01,2013-02-13 11:50:00,
2013-02-13 06:55:00,43.7,42.9,29.77,SE,124,0.0,1.0,97,0.01,,OVC080,0.06,VWS V14.01,2013-02-13 11:55:00,
2013-02-13 07:00:00,43.7,42.9,29.77,SE,128,0.0,1.0,97,0.01,,OVC080,0.06,VWS V14.01,2013-02-13 12:00:00,
2013-02-13 07:05:00,43.7,42.9,29.77,NNW,333,0.0,4.0,97,0.01,,,0.06,VWS V14.01,2013-02-13 12:05:00,
2013-02-13 07:10:00,43.7,42.9,29.78,East,88,0.0,4.0,97,0.01,,,0.06,VWS V14.01,2013-02-13 12:10:00,
2013-02-13 07:15:00,43.7,42.9,29.78,ENE,73,0.0,2.0,97,0.01,,,0.06,VWS V14.01,2013-02-13 12:15:00,
2013-02-13 07:20:00,43.8,43.0,29.79,ESE,108,1.0,1.0,97,0.01,,,0.06,VWS V14.01,2013-02-13 12:20:00,
2013-02-13 07:25:00,43.8,43.0,29.79,SE,131,1.0,2.0,97,0.01,,,0.06,VWS V14.01,2013-02-13 12:25:00,
2013-02-13 07:30:00,43.8,43.0,29.78,NE,54,0.0,4.0,97,0.01,,,0.06,VWS V14.01,2013-02-13 12:30:00,
2013-02-13 07:35:00,43.8,43.0,29.78,East,79,2.0,4.0,97,0.01,,,0.06,VWS V14.01,2013-02-13 12:35:00,
2013-02-13 07:40:00,43.8,43.0,29.77,SE,125,0.0,1.0,97,0.01,,,0.06,VWS V14.01,2013-02-13 12:40:00,
2013-02-13 07:45:00,43.8,43.0,29.76,SE,138,0.0,2.0,97,0.01,,,0.06,VWS V14.01,2013-02-13 12:45:00,
2013-02-13 07:50:00,43.9,43.1,29.79,NNW,332,0.0,2.0,97,0.02,,,0.07,VWS V14.01,2013-02-13 12:50:00,
2013-02-13 07:55:00,43.9,43.1,29.75,SSE,148,0.0,5.0,97,0.02,,,0.07,VWS V14.01,2013-02-13 12:55:00,
2013-02-13 08:00:00,43.9,43.1,29.76,East,86,2.0,6.0,97,0.01,,,0.07,VWS V14.01,2013-02-13 13:00:00,
2013-02-13 08:05:00,44.0,43.2,29.80,SW,224,0.0,3.0,97,0.01,,,0.07,VWS V14.01,2013-02-13 13:05:00,
2013-02-13 08:10:00,44.0,43.2,29.80,SSW,197,0.0,0.0,97,0.01,,,0.07,VWS V14.01,2013-02-13 13:10:00,
2013-02-13 08:15:00,44.0,43.2,29.79,East,98,1.0,1.0,97,0.01,,,0.07,VWS V14.01,2013-02-13 13:15:00,
2013-02-13 08:20:00,44.1,43.3,29.79,East,98,0.0,0.0,97,0.01,,,0.07,VWS V14.01,2013-02-13 13:20:00,
2013-02-13 08:25:00,44.0,43.2,29.79,SW,224,2.0,2.0,97,0.01,,,0.07,VWS V14.01,2013-02-13 13:25:00,
2013-02-13 08:30:00,44.0,43.2,29.80,SSW,212,0.0,2.0,97,0.01,,,0.07,VWS V14.01,2013-02-13 13:30:00,
2013-02-13 08:35:00,44.1,43.3,29.77,ESE,113,1.0,4.0,97,0.01,,,0.07,VWS V14.01,2013-02-13 13:35:00,
2013-02-13 08:40:00,44.1,43.3,29.80,ESE,117,0.0,2.0,97,0.01,,,0.07,VWS V14.01,2013-02-13 13:40:00,
2013-02-13 08:45:00,44.1,43.3,29.77,East,93,0.0,1.0,97,0.01,,,0.07,VWS V14.01,2013-02-13 13:45:00,
2013-02-13 08:50:00,44.3,43.8,29.80,South,187,0.0,1.0,98,0.01,,,0.07,VWS V14.01,2013-02-13 13:50:00,
2013-02-13 08:55:00,44.2,43.7,29.79,SE,129,1.0,3.0,98,0.00,,,0.07,VWS V14.01,2013-02-13 13:55:00,
2013-02-13 09:00:00,44.3,43.5,29.79,North,355,0.0,1.0,97,0.00,,,0.07,VWS V14.01,2013-02-13 14:00:00,
2013-02-13 09:05:00,44.3,43.8,29.79,ENE,61,0.0,1.0,98,0.01,,,0.08,VWS V14.01,2013-02-13 14:05:00,
2013-02-13 09:10:00,44.4,43.9,29.81,South,176,0.0,1.0,98,0.01,,,0.08,VWS V14.01,2013-02-13 14:10:00,
2013-02-13 09:15:00,44.4,43.9,29.77,SE,136,1.0,1.0,98,0.01,,,0.08,VWS V14.01,2013-02-13 14:15:00,
2013-02-13 09:20:00,44.4,43.9,29.78,South,184,0.0,2.0,98,0.01,,,0.08,VWS V14.01,2013-02-13 14:20:00,
2013-02-13 09:25:00,44.4,43.9,29.80,West,267,0.0,2.0,98,0.01,,,0.08,VWS V14.01,2013-02-13 14:25:00,
2013-02-13 09:30:00,44.4,43.9,29.79,West,265,0.0,1.0,98,0.01,,,0.08,VWS V14.01,2013-02-13 14:30:00,
2013-02-13 09:35:00,44.4,43.9,29.78,ESE,111,0.0,2.0,98,0.01,,,0.08,VWS V14.01,2013-02-13 14:35:00,
2013-02-13 09:40:00,44.5,44.0,29.78,SW,233,0.0,1.0,98,0.01,,,0.08,VWS V14.01,2013-02-13 14:40:00,
2013-02-13 09:45:00,44.5,44.0,29.78,SE,139,0.0,1.0,98,0.01,,,0.08,VWS V14.01,2013-02-13 14:45:00,
2013-02-13 09:50:00,44.6,44.1,29.78,West,266,0.0,1.0,98,0.01,,,0.08,VWS V14.01,2013-02-13 14:50:00,
2013-02-13 09:55:00,44.6,44.1,29.79,ESE,118,0.0,1.0,98,0.01,,,0.08,VWS V14.01,2013-02-13 14:55:00,
2013-02-13 10:00:00,44.7,44.2,29.80,SSW,211,2.0,2.0,98,0.01,,,0.08,VWS V14.01,2013-02-13 15:00:00,
2013-02-13 10:05:00,44.7,44.2,29.81,West,266,0.0,3.0,98,0.01,,,0.08,VWS V14.01,2013-02-13 15:05:00,
2013-02-13 10:10:00,44.7,44.2,29.82,WSW,246,2.0,2.0,98,0.00,,,0.08,VWS V14.01,2013-02-13 15:10:00,
2013-02-13 10:15:00,44.8,44.3,29.79,SSW,197,0.0,1.0,98,0.00,,,0.08,VWS V14.01,2013-02-13 15:15:00,
2013-02-13 10:20:00,45.0,44.5,29.81,WSW,253,0.0,2.0,98,0.00,,,0.08,VWS V14.01,2013-02-13 15:20:00,
2013-02-13 10:25:00,45.1,44.6,29.81,South,176,2.0,3.0,98,0.00,,,0.08,VWS V14.01,2013-02-13 15:25:00,
2013-02-13 10:30:00,45.0,44.5,29.81,SW,233,1.0,3.0,98,0.00,,,0.08,VWS V14.01,2013-02-13 15:30:00,
2013-02-13 10:35:00,45.1,44.6,29.80,SW,224,0.0,1.0,98,0.00,,OVC005,0.08,VWS V14.01,2013-02-13 15:35:00,
2013-02-13 10:40:00,45.2,44.7,29.80,SSW,206,1.0,2.0,98,0.00,,OVC005,0.08,VWS V14.01,2013-02-13 15:40:00,
2013-02-13 10:45:00,45.4,44.9,29.82,SSW,205,1.0,4.0,98,0.00,,OVC005,0.08,VWS V14.01,2013-02-13 15:45:00,
2013-02-13 10:50:00,45.5,45.0,29.83,SSW,203,4.0,7.0,98,0.00,,OVC005,0.08,VWS V14.01,2013-02-13 15:50:00,
2013-02-13 10:55:00,45.7,45.2,29.82,WSW,252,2.0,6.0,98,0.00,,OVC005,0.08,VWS V14.01,2013-02-13 15:55:00,
2013-02-13 11:00:00,45.8,45.3,29.81,SW,231,1.0,2.0,98,0.00,,OVC005,0.08,VWS V14.01,2013-02-13 16:00:00,
2013-02-13 11:05:00,45.9,45.4,29.79,SSW,194,2.0,2.0,98,0.00,,OVC005,0.08,VWS V14.01,2013-02-13 16:05:00,
2013-02-13 11:10:00,46.0,45.5,29.80,WSW,239,0.0,2.0,98,0.00,,,0.08,VWS V14.01,2013-02-13 16:10:00,
2013-02-13 11:15:00,46.1,45.6,29.81,WSW,248,0.0,2.0,98,0.00,,,0.08,VWS V14.01,2013-02-13 16:15:00,
2013-02-13 11:20:00,46.4,45.9,29.81,West,264,2.0,2.0,98,0.00,,,0.08,VWS V14.01,2013-02-13 16:20:00,
2013-02-13 11:25:00,46.5,46.0,29.80,SSW,212,0.0,2.0,98,0.00,,,0.08,VWS V14.01,2013-02-13 16:25:00,
2013-02-13 11:30:00,46.9,46.4,29.81,SW,217,2.0,4.0,98,0.00,,,0.08,VWS V14.01,2013-02-13 16:30:00,
2013-02-13 11:35:00,47.2,46.7,29.81,WSW,249,2.0,2.0,98,0.00,,,0.08,VWS V14.01,2013-02-13 16:35:00,
2013-02-13 11:40:00,47.5,47.0,29.81,West,261,1.0,4.0,98,0.00,,,0.08,VWS V14.01,2013-02-13 16:40:00,
2013-02-13 11:45:00,47.7,47.2,29.80,SSW,204,1.0,1.0,98,0.00,,,0.08,VWS V14.01,2013-02-13 16:45:00,
2013-02-13 11:50:00,47.9,47.1,29.81,WSW,242,4.0,7.0,97,0.00,,,0.08,VWS V14.01,2013-02-13 16:50:00,
2013-02-13 11:55:00,48.1,47.0,29.81,WSW,242,3.0,6.0,96,0.00,,,0.08,VWS V14.01,2013-02-13 16:55:00,
2013-02-13 12:00:00,48.5,47.1,29.80,WSW,249,4.0,7.0,95,0.00,,,0.08,VWS V14.01,2013-02-13 17:00:00,
2013-02-13 12:05:00,49.1,47.7,29.80,West,259,2.0,5.0,95,0.00,,OVC032,0.08,VWS V14.01,2013-02-13 17:05:00,
2013-02-13 12:10:00,49.7,47.8,29.80,West,259,2.0,8.0,93,0.00,,OVC032,0.08,VWS V14.01,2013-02-13 17:10:00,
2013-02-13 12:15:00,50.1,47.9,29.80,West,264,1.0,4.0,92,0.00,,OVC032,0.08,VWS V14.01,2013-02-13 17:15:00,
2013-02-13 12:20:00,50.1,47.6,29.79,WSW,255,1.0,5.0,91,0.00,,OVC032,0.08,VWS V14.01,2013-02-13 17:20:00,
2013-02-13 12:25:00,50.6,48.4,29.79,WNW,285,1.0,4.0,92,0.00,,OVC032,0.08,VWS V14.01,2013-02-13 17:25:00,
2013-02-13 12:30:00,50.9,48.4,29.80,West,266,1.0,4.0,91,0.00,,OVC032,0.08,VWS V14.01,2013-02-13 17:30:00,
2013-02-13 12:35:00,51.1,48.3,29.79,WSW,252,3.0,4.0,90,0.00,,OVC032,0.08,VWS V14.01,2013-02-13 17:35:00,
2013-02-13 12:40:00,51.2,48.4,29.80,West,259,2.0,4.0,90,0.00,,OVC032,0.08,VWS V14.01,2013-02-13 17:40:00,
2013-02-13 12:45:00,51.0,47.6,29.80,WNW,293,1.0,3.0,88,0.00,,OVC032,0.08,VWS V14.01,2013-02-13 17:45:00,
2013-02-13 12:51:00,50.9,47.8,29.80,NW,309,0.0,4.0,89,0.00,,OVC032,0.08,VWS V14.01,2013-02-13 17:51:00,
2013-02-13 12:55:00,51.1,46.8,29.79,West,270,3.0,8.0,85,0.00,,OVC032,0.08,VWS V14.01,2013-02-13 17:55:00,
2013-02-13 13:00:00,51.3,47.3,29.79,North,352,1.0,3.0,86,0.00,,OVC032,0.08,VWS V14.01,2013-02-13 18:00:00,
2013-02-13 13:06:00,51.0,47.0,29.79,WSW,256,2.0,6.0,86,0.00,,BKN020,0.08,VWS V14.01,2013-02-13 18:06:00,
2013-02-13 13:10:00,50.9,46.9,29.79,WNW,299,2.0,7.0,86,0.00,,BKN020,0.08,VWS V14.01,2013-02-13 18:10:00,
2013-02-13 13:16:00,50.8,46.5,29.79,SW,232,5.0,7.0,85,0.00,,BKN020,0.08,VWS V14.01,2013-02-13 18:16:00,
2013-02-13 13:21:00,50.8,46.5,29.78,West,264,3.0,5.0,85,0.00,,BKN020,0.08,VWS V14.01,2013-02-13 18:21:00,
2013-02-13 13:26:00,50.8,45.8,29.79,WNW,293,4.0,8.0,83,0.00,,BKN020,0.08,VWS V14.01,2013-02-13 18:26:00,
2013-02-13 13:30:00,50.8,46.2,29.79,NW,315,1.0,6.0,84,0.00,,BKN020,0.08,VWS V14.01,2013-02-13 18:30:00,
2013-02-13 13:36:00,50.6,46.0,29.78,NE,40,1.0,5.0,84,0.00,,BKN020,0.08,VWS V14.01,2013-02-13 18:36:00,
2013-02-13 13:40:00,50.6,46.0,29.80,WNW,297,1.0,4.0,84,0.00,,BKN020,0.08,VWS V14.01,2013-02-13 18:40:00,
2013-02-13 13:46:00,50.5,45.8,29.80,NNW,348,1.0,5.0,84,0.00,,BKN020,0.08,VWS V14.01,2013-02-13 18:46:00,
2013-02-13 13:51:00,50.5,45.5,29.79,SW,231,3.0,8.0,83,0.00,,BKN020,0.08,VWS V14.01,2013-02-13 18:51:00,
2013-02-13 13:56:00,50.1,44.5,29.79,WSW,250,6.0,11.0,81,0.00,,BKN020,0.08,VWS V14.01,2013-02-13 18:56:00,
2013-02-13 14:01:00,49.8,44.5,29.78,West,269,4.0,11.0,82,0.00,,BKN020,0.08,VWS V14.01,2013-02-13 19:01:00,
2013-02-13 14:06:00,49.6,44.7,29.79,West,259,5.0,8.0,83,0.00,,OVC026,0.08,VWS V14.01,2013-02-13 19:06:00,
2013-02-13 14:11:00,49.3,44.4,29.79,West,281,3.0,10.0,83,0.00,,OVC026,0.08,VWS V14.01,2013-02-13 19:11:00,
2013-02-13 14:16:00,49.8,44.8,29.79,West,270,7.0,10.0,83,0.00,,OVC026,0.08,VWS V14.01,2013-02-13 19:16:00,
2013-02-13 14:21:00,49.8,44.2,29.80,West,266,5.0,11.0,81,0.00,,OVC026,0.08,VWS V14.01,2013-02-13 19:21:00,
2013-02-13 14:26:00,49.7,44.4,29.80,WSW,243,4.0,6.0,82,0.00,,OVC026,0.08,VWS V14.01,2013-02-13 19:26:00,
2013-02-13 14:31:00,49.3,44.0,29.80,WSW,257,3.0,8.0,82,0.00,,OVC026,0.08,VWS V14.01,2013-02-13 19:31:00,
2013-02-13 14:36:00,48.8,43.9,29.81,West,281,2.0,6.0,83,0.00,,OVC026,0.08,VWS V14.01,2013-02-13 19:36:00,
2013-02-13 14:41:00,48.5,43.3,29.80,WSW,238,2.0,8.0,82,0.00,,OVC026,0.08,VWS V14.01,2013-02-13 19:41:00,
2013-02-13 14:46:00,48.4,42.8,29.80,NNE,13,2.0,10.0,81,0.00,,OVC026,0.08,VWS V14.01,2013-02-13 19:46:00,
2013-02-13 14:51:00,48.0,42.5,29.80,NE,52,3.0,7.0,81,0.00,,OVC026,0.08,VWS V14.01,2013-02-13 19:51:00,
2013-02-13 14:56:00,47.6,42.4,29.80,NW,304,2.0,7.0,82,0.00,,OVC026,0.08,VWS V14.01,2013-02-13 19:56:00,
2013-02-13 15:01:00,47.4,42.5,29.81,WSW,254,0.0,6.0,83,0.00,,OVC026,0.08,VWS V14.01,2013-02-13 20:01:00,
2013-02-13 15:06:00,47.3,42.4,29.81,NNE,16,4.0,9.0,83,0.00,,OVC017,0.08,VWS V14.01,2013-02-13 20:06:00,
2013-02-13 15:11:00,47.1,42.5,29.81,SW,233,2.0,5.0,84,0.00,,OVC017,0.08,VWS V14.01,2013-02-13 20:11:00,
2013-02-13 15:16:00,46.9,42.3,29.81,WSW,252,6.0,6.0,84,0.00,,OVC017,0.08,VWS V14.01,2013-02-13 20:16:00,
2013-02-13 15:21:00,46.7,42.4,29.82,WSW,252,6.0,8.0,85,0.00,,OVC017,0.08,VWS V14.01,2013-02-13 20:21:00,
2013-02-13 15:26:00,46.4,42.1,29.82,NNW,342,3.0,7.0,85,0.00,,OVC017,0.08,VWS V14.01,2013-02-13 20:26:00,
2013-02-13 15:31:00,46.2,42.0,29.83,NW,323,0.0,5.0,85,0.00,,OVC017,0.08,VWS V14.01,2013-02-13 20:31:00,
2013-02-13 15:36:00,46.0,42.0,29.83,NW,308,2.0,5.0,86,0.00,,OVC017,0.08,VWS V14.01,2013-02-13 20:36:00,
2013-02-13 15:41:00,45.8,41.9,29.83,NNE,32,5.0,5.0,86,0.00,,OVC017,0.08,VWS V14.01,2013-02-13 20:41:00,
2013-02-13 15:46:00,45.6,42.0,29.83,WSW,256,4.0,7.0,87,0.00,,OVC017,0.08,VWS V14.01,2013-02-13 20:46:00,
2013-02-13 15:51:00,45.7,42.4,29.83,NW,314,0.0,6.0,88,0.00,,OVC017,0.08,VWS V14.01,2013-02-13 20:51:00,
2013-02-13 15:56:00,46.1,42.5,29.83,West,278,1.0,6.0,87,0.00,,OVC017,0.08,VWS V14.01,2013-02-13 20:56:00,
2013-02-13 16:01:00,46.3,42.3,29.83,West,276,0.0,6.0,86,0.00,,OVC017,0.08,VWS V14.01,2013-02-13 21:01:00,
2013-02-13 16:06:00,46.3,42.0,29.83,NW,312,2.0,5.0,85,0.00,,OVC031,0.08,VWS V14.01,2013-02-13 21:06:00,
2013-02-13 16:11:00,46.3,42.0,29.83,WSW,249,1.0,5.0,85,0.00,,OVC031,0.08,VWS V14.01,2013-02-13 21:11:00,
2013-02-13 16:16:00,46.3,42.0,29.83,WSW,253,2.0,3.0,85,0.00,,OVC031,0.08,VWS V14.01,2013-02-13 21:16:00,
2013-02-13 16:21:00,46.2,42.0,29.83,WSW,242,1.0,4.0,85,0.00,,OVC031,0.08,VWS V14.01,2013-02-13 21:21:00,
2013-02-13 16:26:00,46.2,42.0,29.83,NNW,331,0.0,4.0,85,0.00,,OVC031,0.08,VWS V14.01,2013-02-13 21:26:00,
2013-02-13 16:31:00,46.2,41.6,29.84,SW,236,2.0,5.0,84,0.00,,OVC031,0.08,VWS V14.01,2013-02-13 21:31:00,
2013-02-13 16:36:00,46.1,41.5,29.84,SW,233,3.0,5.0,84,0.00,,OVC031,0.08,VWS V14.01,2013-02-13 21:36:00,
2013-02-13 16:41:00,46.1,41.5,29.84,West,270,0.0,3.0,84,0.00,,OVC031,0.08,VWS V14.01,2013-02-13 21:41:00,
2013-02-13 16:46:00,46.1,41.5,29.84,SW,217,1.0,3.0,84,0.00,,OVC031,0.08,VWS V14.01,2013-02-13 21:46:00,
2013-02-13 16:51:00,46.1,41.5,29.84,West,274,1.0,6.0,84,0.00,,OVC031,0.08,VWS V14.01,2013-02-13 21:51:00,
2013-02-13 16:56:00,46.1,41.2,29.84,West,266,1.0,4.0,83,0.00,,OVC031,0.08,VWS V14.01,2013-02-13 21:56:00,
2013-02-13 17:01:00,46.0,41.1,29.85,West,271,1.0,7.0,83,0.00,,OVC031,0.08,VWS V14.01,2013-02-13 22:01:00,
2013-02-13 17:06:00,45.9,41.0,29.85,WNW,284,2.0,8.0,83,0.00,,OVC031,0.08,VWS V14.01,2013-02-13 22:06:00,
2013-02-13 17:11:00,45.9,41.3,29.85,SW,226,1.0,5.0,84,0.00,,OVC031,0.08,VWS V14.01,2013-02-13 22:11:00,
2013-02-13 17:16:00,45.9,41.0,29.85,WSW,256,4.0,6.0,83,0.00,,OVC031,0.08,VWS V14.01,2013-02-13 22:16:00,
2013-02-13 17:21:00,45.9,41.0,29.85,West,266,2.0,6.0,83,0.00,,OVC031,0.08,VWS V14.01,2013-02-13 22:21:00,
2013-02-13 17:26:00,45.9,41.0,29.85,WNW,290,1.0,8.0,83,0.00,,OVC031,0.08,VWS V14.01,2013-02-13 22:26:00,
2013-02-13 17:31:00,45.9,41.3,29.85,WSW,252,2.0,3.0,84,0.00,,OVC031,0.08,VWS V14.01,2013-02-13 22:31:00,
2013-02-13 17:36:00,45.9,41.3,29.85,West,276,1.0,3.0,84,0.00,,OVC031,0.08,VWS V14.01,2013-02-13 22:36:00,
2013-02-13 17:41:00,45.9,41.3,29.86,West,276,1.0,5.0,84,0.00,,OVC031,0.08,VWS V14.01,2013-02-13 22:41:00,
2013-02-13 17:46:00,45.8,41.2,29.87,West,266,0.0,9.0,84,0.00,,OVC031,0.08,VWS V14.01,2013-02-13 22:46:00,
2013-02-13 17:51:00,45.8,41.9,29.87,SW,233,0.0,6.0,86,0.00,,OVC031,0.08,VWS V14.01,2013-02-13 22:51:00,
2013-02-13 17:56:00,45.7,41.2,29.87,WNW,293,0.0,5.0,84,0.00,,OVC031,0.08,VWS V14.01,2013-02-13 22:56:00,
2013-02-13 18:01:00,45.7,41.5,29.87,NE,46,1.0,5.0,85,0.00,,OVC031,0.08,VWS V14.01,2013-02-13 23:01:00,
2013-02-13 18:06:00,45.6,41.0,29.87,WSW,253,2.0,5.0,84,0.00,,OVC018,0.08,VWS V14.01,2013-02-13 23:06:00,
2013-02-13 18:11:00,45.6,41.0,29.87,NW,323,1.0,7.0,84,0.00,,OVC018,0.08,VWS V14.01,2013-02-13 23:11:00,
2013-02-13 18:16:00,45.6,41.0,29.88,NW,309,0.0,3.0,84,0.00,,OVC018,0.08,VWS V14.01,2013-02-13 23:16:00,
2013-02-13 18:21:00,45.6,41.0,29.88,WSW,245,1.0,5.0,84,0.00,,OVC018,0.08,VWS V14.01,2013-02-13 23:21:00,
2013-02-13 18:26:00,45.5,41.0,29.88,WSW,252,1.0,5.0,84,0.00,,OVC018,0.08,VWS V14.01,2013-02-13 23:26:00,
2013-02-13 18:31:00,45.5,40.7,29.88,West,278,0.0,8.0,83,0.00,,OVC018,0.08,VWS V14.01,2013-02-13 23:31:00,
2013-02-13 18:36:00,45.5,40.7,29.88,NW,304,0.0,8.0,83,0.00,,OVC018,0.08,VWS V14.01,2013-02-13 23:36:00,
2013-02-13 18:41:00,45.4,40.5,29.89,NNW,338,3.0,6.0,83,0.00,,OVC018,0.08,VWS V14.01,2013-02-13 23:41:00,
2013-02-13 18:46:00,45.4,40.5,29.89,NW,310,0.0,6.0,83,0.00,,OVC018,0.08,VWS V14.01,2013-02-13 23:46:00,
2013-02-13 18:51:00,45.3,40.5,29.89,NW,324,0.0,5.0,83,0.00,,OVC018,0.08,VWS V14.01,2013-02-13 23:51:00,
2013-02-13 18:56:00,45.2,40.0,29.90,North,360,2.0,5.0,82,0.00,,OVC018,0.08,VWS V14.01,2013-02-13 23:56:00,
2013-02-13 19:01:00,45.0,39.2,29.90,NNE,32,1.0,7.0,80,0.00,,OVC018,0.08,VWS V14.01,2013-02-14 00:01:00,
2013-02-13 19:06:00,44.9,38.8,29.90,West,281,1.0,9.0,79,0.00,,OVC030,0.08,VWS V14.01,2013-02-14 00:06:00,
2013-02-13 19:11:00,44.7,38.9,29.90,North,354,1.0,7.0,80,0.00,,OVC030,0.08,VWS V14.01,2013-02-14 00:11:00,
2013-02-13 19:16:00,44.4,38.0,29.91,NNE,33,8.0,9.0,78,0.00,,OVC030,0.08,VWS V14.01,2013-02-14 00:16:00,
2013-02-13 19:21:00,44.1,38.0,29.91,WNW,299,2.0,8.0,79,0.00,,OVC030,0.08,VWS V14.01,2013-02-14 00:21:00,
2013-02-13 19:26:00,43.7,37.3,29.91,NNW,347,1.0,8.0,78,0.00,,OVC030,0.08,VWS V14.01,2013-02-14 00:26:00,
2013-02-13 19:31:00,43.4,37.7,29.92,North,352,0.0,6.0,80,0.00,,OVC030,0.08,VWS V14.01,2013-02-14 00:31:00,
2013-02-13 19:36:00,43.1,37.4,29.92,NW,310,0.0,5.0,80,0.00,,OVC030,0.08,VWS V14.01,2013-02-14 00:36:00,
2013-02-13 19:41:00,42.8,37.4,29.92,NW,314,4.0,4.0,81,0.00,,OVC030,0.08,VWS V14.01,2013-02-14 00:41:00,
2013-02-13 19:46:00,42.6,37.2,29.93,NW,307,0.0,4.0,81,0.00,,OVC030,0.08,VWS V14.01,2013-02-14 00:46:00,
2013-02-13 19:51:00,42.5,37.1,29.93,NW,304,1.0,3.0,81,0.00,,OVC030,0.08,VWS V14.01,2013-02-14 00:51:00,
2013-02-13 19:56:00,42.4,37.0,29.93,West,264,0.0,3.0,81,0.00,,OVC030,0.08,VWS V14.01,2013-02-14 00:56:00,
2013-02-13 20:01:00,42.3,37.2,29.93,West,281,1.0,2.0,82,0.00,,OVC030,0.08,VWS V14.01,2013-02-14 01:01:00,
2013-02-13 20:06:00,42.3,37.2,29.93,West,269,0.0,3.0,82,0.00,,OVC036,0.08,VWS V14.01,2013-02-14 01:06:00,
2013-02-13 20:11:00,42.2,37.1,29.93,NW,326,1.0,9.0,82,0.00,,OVC036,0.08,VWS V14.01,2013-02-14 01:11:00,
2013-02-13 20:16:00,42.3,37.2,29.94,NW,323,0.0,2.0,82,0.00,,OVC036,0.08,VWS V14.01,2013-02-14 01:16:00,
2013-02-13 20:21:00,42.2,37.1,29.94,WSW,241,1.0,4.0,82,0.00,,OVC036,0.08,VWS V14.01,2013-02-14 01:21:00,
2013-02-13 20:26:00,42.2,37.1,29.94,WSW,258,1.0,2.0,82,0.00,,OVC036,0.08,VWS V14.01,2013-02-14 01:26:00,
2013-02-13 20:31:00,42.1,37.0,29.94,West,273,2.0,6.0,82,0.00,,OVC036,0.08,VWS V14.01,2013-02-14 01:31:00,
2013-02-13 20:36:00,42.1,36.7,29.94,WNW,295,1.0,6.0,81,0.00,,OVC036,0.08,VWS V14.01,2013-02-14 01:36:00,
2013-02-13 20:41:00,42.2,37.1,29.94,NW,319,2.0,5.0,82,0.00,,OVC036,0.08,VWS V14.01,2013-02-14 01:41:00,
2013-02-13 20:46:00,42.2,36.8,29.94,NW,307,3.0,10.0,81,0.00,,OVC036,0.08,VWS V14.01,2013-02-14 01:46:00,
2013-02-13 20:51:00,42.1,36.4,29.94,NE,44,2.0,6.0,80,0.00,,OVC036,0.08,VWS V14.01,2013-02-14 01:51:00,
2013-02-13 20:56:00,42.0,36.6,29.95,NW,321,0.0,6.0,81,0.00,,OVC036,0.08,VWS V14.01,2013-02-14 01:56:00,
2013-02-13 21:01:00,42.0,36.6,29.95,NNW,341,0.0,6.0,81,0.00,,OVC036,0.08,VWS V14.01,2013-02-14 02:01:00,
2013-02-13 21:06:00,41.9,36.5,29.95,WNW,295,1.0,4.0,81,0.00,,BKN028,0.08,VWS V14.01,2013-02-14 02:06:00,
2013-02-13 21:11:00,41.8,36.7,29.95,WNW,285,0.0,3.0,82,0.00,,BKN028,0.08,VWS V14.01,2013-02-14 02:11:00,
2013-02-13 21:16:00,41.7,36.6,29.95,NNE,27,3.0,4.0,82,0.00,,BKN028,0.08,VWS V14.01,2013-02-14 02:16:00,
2013-02-13 21:21:00,41.7,36.6,29.94,WSW,240,1.0,3.0,82,0.00,,BKN028,0.08,VWS V14.01,2013-02-14 02:21:00,
2013-02-13 21:26:00,41.6,36.5,29.95,NNW,335,1.0,3.0,82,0.00,,BKN028,0.08,VWS V14.01,2013-02-14 02:26:00,
2013-02-13 21:31:00,41.5,36.7,29.95,North,9,2.0,3.0,83,0.00,,BKN028,0.08,VWS V14.01,2013-02-14 02:31:00,
2013-02-13 21:36:00,41.5,36.4,29.95,NNW,342,2.0,4.0,82,0.00,,BKN028,0.08,VWS V14.01,2013-02-14 02:36:00,
2013-02-13 21:41:00,41.5,36.7,29.96,NNW,330,0.0,2.0,83,0.00,,BKN028,0.08,VWS V14.01,2013-02-14 02:41:00,
2013-02-13 21:46:00,41.3,36.5,29.95,NNE,22,2.0,2.0,83,0.00,,BKN028,0.08,VWS V14.01,2013-02-14 02:46:00,
2013-02-13 21:51:00,41.1,36.0,29.96,North,8,2.0,5.0,82,0.00,,BKN028,0.08,VWS V14.01,2013-02-14 02:51:00,
2013-02-13 21:56:00,40.7,35.3,29.96,NNE,29,1.0,4.0,81,0.00,,BKN028,0.08,VWS V14.01,2013-02-14 02:56:00,
2013-02-13 22:01:00,40.4,35.0,29.96,NW,323,0.0,1.0,81,0.00,,BKN028,0.08,VWS V14.01,2013-02-14 03:01:00,
2013-02-13 22:06:00,40.1,35.1,29.96,NNE,13,0.0,3.0,82,0.00,,BKN028,0.08,VWS V14.01,2013-02-14 03:06:00,
2013-02-13 22:11:00,39.8,34.8,29.96,West,259,0.0,4.0,82,0.00,,BKN028,0.08,VWS V14.01,2013-02-14 03:11:00,
2013-02-13 22:16:00,39.6,34.6,29.96,NW,323,0.0,3.0,82,0.00,,BKN028,0.08,VWS V14.01,2013-02-14 03:16:00,
2013-02-13 22:21:00,39.4,34.4,29.96,West,280,0.0,3.0,82,0.00,,BKN028,0.08,VWS V14.01,2013-02-14 03:21:00,
2013-02-13 22:26:00,39.2,34.5,29.97,NW,309,1.0,2.0,83,0.00,,BKN028,0.08,VWS V14.01,2013-02-14 03:26:00,
2013-02-13 22:31:00,39.0,34.3,29.96,NNW,327,0.0,2.0,83,0.00,,BKN028,0.08,VWS V14.01,2013-02-14 03:31:00,
2013-02-13 22:36:00,38.8,34.1,29.96,NW,321,1.0,3.0,83,0.00,,BKN028,0.08,VWS V14.01,2013-02-14 03:36:00,
2013-02-13 22:41:00,38.7,34.3,29.96,NW,307,0.0,4.0,84,0.00,,BKN028,0.08,VWS V14.01,2013-02-14 03:41:00,
2013-02-13 22:46:00,38.6,34.2,29.97,NNW,333,1.0,4.0,84,0.00,,BKN028,0.08,VWS V14.01,2013-02-14 03:46:00,
2013-02-13 22:51:00,38.4,34.3,29.97,West,263,0.0,1.0,85,0.00,,BKN028,0.08,VWS V14.01,2013-02-14 03:51:00,
2013-02-13 22:56:00,38.2,34.4,29.98,ENE,64,0.0,1.0,86,0.00,,BKN028,0.08,VWS V14.01,2013-02-14 03:56:00,
2013-02-13 23:01:00,38.0,34.2,29.98,NNE,15,2.0,2.0,86,0.00,,BKN028,0.08,VWS V14.01,2013-02-14 04:01:00,
2013-02-13 23:06:00,37.9,34.1,29.98,NNW,328,0.0,2.0,86,0.00,,SKC,0.08,VWS V14.01,2013-02-14 04:06:00,
2013-02-13 23:11:00,37.9,34.4,29.98,North,355,0.0,3.0,87,0.00,,SKC,0.08,VWS V14.01,2013-02-14 04:11:00,
2013-02-13 23:16:00,37.7,34.2,29.98,North,359,0.0,1.0,87,0.00,,SKC,0.08,VWS V14.01,2013-02-14 04:16:00,
2013-02-13 23:21:00,37.7,34.2,29.98,NNW,327,0.0,4.0,87,0.00,,SKC,0.08,VWS V14.01,2013-02-14 04:21:00,
2013-02-13 23:26:00,37.7,34.2,29.98,NNW,332,0.0,3.0,87,0.00,,SKC,0.08,VWS V14.01,2013-02-14 04:26:00,
2013-02-13 23:31:00,37.7,34.2,29.99,North,349,3.0,4.0,87,0.00,,SKC,0.08,VWS V14.01,2013-02-14 04:31:00,
2013-02-13 23:36:00,37.6,34.4,29.99,NW,309,0.0,3.0,88,0.00,,SKC,0.08,VWS V14.01,2013-02-14 04:36:00,
2013-02-13 23:41:00,37.5,34.3,29.99,North,354,0.0,5.0,88,0.00,,SKC,0.08,VWS V14.01,2013-02-14 04:41:00,
2013-02-13 23:46:00,37.4,34.2,29.99,North,360,0.0,1.0,88,0.00,,SKC,0.08,VWS V14.01,2013-02-14 04:46:00,
2013-02-13 23:51:00,37.3,34.1,29.99,WNW,299,0.0,2.0,88,0.00,,SKC,0.08,VWS V14.01,2013-02-14 04:51:00,
2013-02-13 23:56:00,37.2,34.0,29.99,NW,310,0.0,2.0,88,0.00,,SKC,0.08,VWS V14.01,2013-02-14 04:56:00,